Lid_Strength_Index
13 11 11 11 11 11 14 14 14 12 12 10 9 8 7 7 6 6 6 6 5 5 5 4 4 3 3 3 2 2 2 2 2 2 2 2 2 3 2 3 2 2 1 1
15 12 12 12 11 11 11 12 13 13 12 10 7 7 8 7 7 7 7 6 5 5 4 4 4 3 3 3 4 4 4 5 5 5 5 4 3 3 2 1 1 1 1 1
15 13 13 14 13 11 11 11 11 14 11 9 9 8 7 7 7 7 6 6 5 5 4 4 3 3 4 3 3 4 4 3 4 4 4 3 2 2 2 2 1 2 1 1
14 14 18 14 10 9 10 9 9 9 9 9 7 6 6 5 6 6 6 5 5 4 4 3 3 3 3 3 3 3 3 3 2 2 2 2 2 2 2 2 2 2 1 1
15 16 13 10 9 10 11 11 7 8 8 7 6 6 8 5 5 5 5 5 4 3 3 3 3 3 3 3 3 3 3 2 2 2 2 2 2 2 2 2 2 2 1 2
14 16 18 12 8 6 8 13 8 7 7 7 8 12 9 6 5 5 4 4 4 3 3 3 3 3 3 3 3 3 3 2 2 2 2 2 2 2 2 2 2 1 2 2
15 16 13 10 7 6 13 13 7 7 7 8 8 8 6 5 5 4 4 4 3 3 3 3 3 3 4 4 4 3 2 2 2 2 2 2 2 2 2 3 3 2 3 2
14 16 17 7 8 11 9 8 7 7 7 7 7 6 5 5 5 5 5 4 3 4 3 4 4 5 6 6 5 4 3 3 3 2 1 2 2 3 2 2 3 4 4 3
13 13 9 8 8 6 6 7 7 7 6 6 8 6 6 6 5 5 4 4 3 4 5 5 5 5 5 6 4 3 3 3 3 3 2 2 3 3 2 3 3 3 4 4
11 10 9 7 6 6 5 6 5 5 5 5 6 7 6 5 5 5 5 5 5 5 6 6 6 5 5 4 3 3 3 3 3 3 3 2 3 2 3 3 3 3 3 3
11 9 8 7 7 6 5 5 5 4 5 5 5 5 5 5 6 6 6 6 6 6 6 6 5 5 4 3 3 3 3 3 5 3 4 3 3 3 3 5 4 2 2 3
12 8 8 8 6 5 6 6 5 5 5 5 5 5 5 5 5 5 5 5 5 6 5 5 5 4 3 3 3 4 5 5 5 5 4 4 3 4 6 5 7 8 8 5
8 6 6 6 5 5 5 5 4 5 5 5 6 5 5 5 4 5 5 5 6 5 5 4 4 4 4 4 4 5 6 6 6 5 5 5 5 4 5 5 7 9 9 9
5 6 7 6 7 5 4 4 4 4 4 4 4 5 4 4 4 4 4 4 4 3 4 4 4 5 5 4 5 5 6 6 6 6 4 4 4 5 5 6 7 6 7 8
5 5 5 5 5 5 4 4 5 5 5 5 4 4 4 4 4 4 3 3 3 3 4 4 5 5 4 5 5 5 5 6 5 5 5 5 6 7 6 7 7 7 6 6
5 5 5 6 6 5 5 5 6 6 5 5 5 4 4 4 4 3 3 2 4 5 4 5 5 5 5 5 5 5 5 5 5 6 7 7 8 8 8 9 8 7 4 4
7 7 7 7 6 6 5 5 5 5 5 5 4 4 4 4 4 4 3 2 3 4 4 4 5 5 5 5 5 5 6 7 7 8 8 9 9 9 10 9 9 6 5 5
5 5 5 5 5 5 5 5 4 5 5 4 4 4 4 4 4 4 3 3 3 4 4 4 5 5 5 5 5 6 7 8 9 9 9 10 11 10 10 8 7 6 6 6
4 5 5 4 4 5 5 5 4 4 4 4 4 4 4 4 3 3 3 3 4 4 4 4 3 5 6 5 6 6 7 9 10 10 10 9 9 8 7 7 7 7 7 7
5 4 4 4 4 5 5 4 4 4 3 3 4 4 4 4 3 3 3 3 3 4 3 5 6 5 6 6 6 8 9 9 10 10 10 9 7 7 8 8 8 8 8 8
5 4 4 4 4 4 4 4 4 4 4 3 4 4 4 3 3 3 4 4 5 4 4 4 6 6 6 7 8 8 9 8 8 8 8 8 8 8 8 8 10 8 9 10
5 5 5 4 4 5 4 3 3 3 4 3 3 3 3 4 3 3 3 4 4 3 4 5 6 5 6 5 7 7 6 6 7 8 9 9 9 9 8 9 10 11 11 10
5 5 4 4 4 4 3 3 3 3 4 3 3 3 3 3 3 4 5 4 3 4 4 5 5 3 3 5 5 5 5 6 7 8 8 9 9 10 9 10 9 9 9 8
4 4 4 4 3 4 5 4 3 3 3 3 3 2 3 4 4 3 3 4 4 4 5 5 5 4 4 5 4 5 5 6 6 7 8 8 9 10 10 10 8 9 8 8
4 4 4 4 4 4 4 4 3 3 3 3 3 3 3 3 3 4 3 4 5 5 5 5 5 4 3 3 4 5 6 6 7 7 7 8 9 10 10 10 9 8 8 8
4 4 4 3 4 3 3 4 4 4 4 4 4 3 3 4 4 4 4 3 5 5 6 6 5 5 5 3 4 4 5 5 6 7 7 8 8 9 10 10 10 10 10 10
4 5 4 4 4 3 3 4 4 4 4 3 3 3 3 3 3 4 4 3 4 5 5 5 5 5 5 4 4 4 4 5 6 6 7 7 8 8 9 10 10 10 10 9